Temp
36 40 36 35 35 38 38 39 36 38 36 36 36 37 37 36 39 39 39 38 38 37 36 37 37 37 38 39 39 39 40 41 41 42 44 46 50 56 59 60 61 61 60 59
33 42 35 33 39 37 36 36 38 38 35 39 39 40 38 36 36 36 36 36 36 36 36 35 35 35 36 37 38 38 37 38 40 41 43 45 47 57 58 59 61 60 58 57
28 38 38 29 30 33 34 34 38 34 36 37 35 35 34 35 36 35 35 34 34 34 34 34 34 35 34 36 37 36 36 37 39 39 40 43 44 57 58 58 58 58 58 57
27 32 23 32 38 36 32 33 34 36 34 35 34 36 36 35 34 33 34 34 34 34 33 33 35 34 35 37 35 34 34 34 36 37 38 41 43 50 58 57 57 57 56 56
25 26 31 33 34 33 32 30 35 34 36 36 36 38 33 36 36 33 33 33 33 34 33 33 32 33 33 34 34 33 32 32 33 34 36 39 39 41 58 57 56 56 55 54
27 25 21 30 34 40 39 26 36 35 34 35 37 30 30 34 35 33 33 33 32 33 33 30 30 32 32 31 31 30 31 31 32 33 34 35 37 38 56 53 45 42 38 39
25 25 29 32 35 39 27 27 36 36 35 36 31 33 33 35 34 34 32 32 32 32 29 29 30 31 30 31 29 31 31 30 30 32 32 34 36 36 41 39 37 35 33 33
25 23 20 34 35 29 32 35 37 38 39 36 36 36 34 34 32 31 30 30 31 29 28 29 29 30 29 29 32 32 31 28 28 30 31 32 33 32 34 35 33 32 31 30
29 27 33 34 33 35 36 34 34 35 38 40 37 35 35 32 32 30 29 28 28 29 28 30 30 30 29 30 32 31 29 28 27 29 30 30 31 31 30 32 31 31 30 27
30 31 31 32 34 35 35 35 37 35 36 40 36 36 34 32 31 29 28 26 25 25 26 26 29 30 30 31 32 31 29 28 28 27 28 29 30 30 30 29 29 29 28 27
29 31 32 32 33 33 34 35 37 37 36 35 35 32 31 30 29 29 27 25 24 23 23 24 27 29 30 31 31 31 30 29 28 27 27 28 29 30 30 30 30 29 29 29
19 25 30 30 32 33 30 33 34 33 32 33 34 31 30 27 27 27 25 25 24 24 24 24 25 27 30 31 30 30 30 29 27 27 27 26 27 28 30 31 32 32 32 31
30 32 30 31 32 34 31 32 33 32 32 30 30 30 28 26 26 26 25 25 23 23 23 23 23 24 27 29 29 29 28 28 29 28 27 26 26 25 24 27 30 30 31 31
33 33 28 30 28 32 32 34 33 31 30 29 29 28 27 25 26 24 23 24 25 24 23 23 24 24 26 29 27 28 28 28 27 25 24 24 23 24 25 23 22 23 27 28
32 32 30 30 30 29 31 31 28 26 26 25 27 26 26 24 23 22 23 24 25 24 23 23 23 23 26 29 27 27 28 27 26 25 24 24 23 23 23 23 22 22 22 23
33 32 29 27 25 26 26 26 24 24 24 24 23 24 25 25 24 22 22 21 19 17 19 19 22 23 25 26 25 25 25 25 25 24 23 22 22 21 21 21 20 19 18 18
26 24 25 25 24 23 23 24 24 23 23 22 22 23 24 23 22 21 20 20 18 16 18 18 20 23 24 25 24 23 23 23 23 24 23 22 21 21 20 19 18 17 16 17
24 23 24 25 23 22 21 22 22 22 20 20 19 17 16 16 16 15 15 16 16 15 16 17 20 22 23 24 24 24 23 23 23 22 22 21 21 21 20 19 18 16 15 15
21 20 21 22 22 21 20 19 19 19 18 15 14 11 11 12 11 7 10 13 13 13 14 18 21 21 22 24 24 23 21 20 21 20 20 19 19 18 16 16 15 14 14 13
20 20 19 17 16 16 12 9 11 10 7 8 8 9 8 10 9 5 5 10 12 13 16 17 19 21 22 22 22 22 20 19 20 18 17 16 15 15 14 14 13 12 11 10
12 12 12 12 10 9 6 5 7 10 10 10 8 7 7 6 10 10 10 10 11 12 16 17 19 20 21 21 21 19 19 18 17 14 14 12 13 13 12 11 11 10 9 8
7 8 5 6 8 4 3 4 5 2 1 3 5 6 5 6 5 6 5 9 15 14 16 17 18 16 17 18 18 16 17 16 15 14 13 12 9 9 8 9 8 7 4 2
10 10 8 5 6 5 4 4 -0 0 0 -1 2 5 6 6 7 4 4 13 15 12 16 14 13 13 12 12 11 11 12 11 12 12 11 8 6 4 5 5 4 4 2 1
8 9 7 8 8 12 8 5 7 7 2 3 0 0 11 3 4 13 13 9 6 3 5 10 10 11 10 9 10 9 10 10 9 8 9 7 3 2 2 -0 -1 -1 0 -1
9 7 7 8 11 8 9 9 10 10 12 14 11 14 15 14 4 6 3 4 10 5 3 5 7 5 5 4 5 5 5 5 6 6 6 4 2 4 4 1 -2 -0 -1 -3
10 11 11 12 14 12 13 17 11 14 16 9 8 1 1 4 8 9 6 5 6 4 0 -5 -2 0 0 1 -1 -0 3 5 4 4 2 -1 -3 -2 -3 -3 -4 -4 -7 -12
11 12 13 14 15 16 14 16 12 9 10 9 7 3 3 1 1 5 2 -2 -2 3 -2 -6 -6 -2 -1 -1 0 -3 -4 -3 -3 -2 -6 -7 -9 -9 -9 -10 -11 -13 -13 -12
MSLP
1009.65 1008.89 1008.67 1008.52 1008.09 1007.21 1006.19 1005.94 1005.71 1006.32 1007.46 1008.62 1009.26 1009.90 1010.63 1011.43 1012.31 1012.58 1012.98 1013.33 1013.24 1013.36 1013.21 1013.01 1012.78 1012.77 1012.43 1012.09 1011.61 1010.93 1010.20 1009.34 1008.38 1007.59 1006.40 1005.42 1004.01 1002.64 1001.82 1001.75 1001.83 1002.16 1002.44 1003.09
1009.49 1009.00 1009.15 1008.84 1008.39 1008.49 1007.84 1007.87 1007.63 1007.91 1009.13 1010.02 1010.77 1011.50 1012.27 1013.20 1013.06 1013.63 1013.86 1014.10 1014.14 1014.10 1013.95 1013.93 1013.89 1013.48 1012.90 1012.27 1011.52 1011.01 1010.16 1009.37 1008.73 1007.40 1006.15 1004.95 1003.61 1002.02 1001.40 1001.33 1001.36 1001.48 1001.89 1002.56
1010.27 1009.31 1009.20 1009.88 1011.05 1010.38 1010.28 1009.81 1009.02 1009.46 1010.87 1011.55 1012.20 1013.09 1013.96 1014.21 1014.35 1014.84 1015.07 1015.25 1015.31 1015.34 1015.12 1014.94 1014.77 1014.08 1013.32 1012.68 1012.16 1011.09 1010.43 1009.58 1008.42 1007.24 1006.00 1004.79 1003.31 1001.47 1000.86 1000.94 1001.06 1001.27 1001.71 1002.12
1011.20 1010.08 1010.81 1012.19 1012.10 1011.89 1011.74 1012.05 1011.71 1011.53 1012.47 1013.00 1013.75 1014.63 1015.07 1015.24 1015.54 1015.87 1016.01 1016.09 1015.99 1015.66 1015.57 1015.47 1015.04 1014.28 1013.74 1013.06 1012.18 1011.27 1010.71 1009.54 1008.23 1007.08 1005.99 1004.87 1003.24 1001.81 1000.46 1000.46 1000.65 1000.74 1001.61 1002.37
1012.41 1011.95 1012.42 1012.69 1013.17 1013.36 1013.54 1014.18 1014.11 1013.89 1013.82 1014.36 1014.75 1014.87 1015.87 1016.42 1016.72 1016.91 1017.19 1017.02 1016.87 1016.77 1016.66 1016.21 1015.50 1014.70 1014.12 1013.19 1012.18 1011.50 1010.59 1009.67 1008.64 1007.40 1006.50 1005.19 1003.66 1002.20 1000.00 1000.16 1000.68 1000.72 1001.53 1002.01
1013.16 1013.35 1013.93 1014.82 1014.41 1014.10 1013.75 1014.93 1015.53 1015.56 1015.41 1015.43 1015.22 1015.79 1017.14 1017.61 1017.85 1017.96 1017.97 1017.71 1017.51 1017.31 1016.86 1016.46 1015.86 1015.46 1014.73 1013.92 1013.19 1012.33 1011.44 1010.70 1009.73 1008.56 1007.31 1005.71 1004.04 1002.28 999.91 999.95 1001.01 1001.22 1002.33 1002.78
1014.75 1014.69 1015.25 1016.03 1015.11 1013.92 1014.92 1017.02 1016.56 1016.55 1016.49 1016.19 1016.33 1017.23 1017.96 1018.25 1018.35 1018.48 1018.45 1018.17 1017.99 1017.66 1017.41 1017.16 1016.89 1016.09 1015.23 1014.51 1013.94 1013.34 1012.52 1011.66 1010.55 1009.15 1007.83 1006.29 1004.55 1003.35 1002.11 1001.07 1001.92 1002.43 1003.34 1004.21
1016.17 1016.63 1017.29 1017.05 1016.04 1016.40 1017.87 1017.72 1017.22 1016.87 1016.80 1016.82 1017.26 1017.91 1018.57 1019.01 1019.23 1019.41 1019.41 1019.14 1018.83 1018.71 1018.51 1017.95 1017.23 1016.40 1015.66 1015.10 1014.67 1013.87 1013.07 1012.19 1010.99 1009.84 1008.34 1006.80 1005.65 1004.77 1003.98 1003.28 1002.13 1003.92 1004.62 1004.96
1018.01 1018.45 1018.89 1019.16 1019.12 1019.14 1018.70 1018.49 1018.30 1018.01 1017.53 1017.37 1017.83 1018.58 1018.94 1019.26 1019.60 1019.86 1020.12 1020.20 1020.00 1019.58 1018.88 1018.25 1017.78 1017.17 1016.50 1016.01 1015.25 1014.47 1013.79 1012.86 1011.91 1011.00 1009.53 1008.30 1007.00 1005.81 1005.89 1005.38 1004.64 1005.28 1005.36 1007.00
1018.79 1019.43 1019.72 1019.94 1019.89 1019.84 1019.68 1019.41 1019.23 1019.23 1018.98 1018.46 1018.63 1019.10 1019.52 1019.87 1020.04 1020.46 1020.70 1020.74 1020.53 1019.98 1019.35 1018.85 1018.37 1017.92 1017.31 1016.63 1015.90 1015.24 1014.46 1013.76 1013.16 1012.23 1011.09 1010.23 1009.13 1007.96 1007.39 1006.97 1006.76 1006.90 1007.18 1007.42
1019.54 1020.14 1020.49 1020.68 1020.72 1020.72 1020.56 1020.42 1020.03 1019.94 1019.92 1019.75 1019.68 1020.04 1020.46 1020.86 1020.98 1021.31 1021.47 1021.38 1021.20 1020.84 1020.32 1019.91 1019.36 1018.63 1017.87 1017.22 1016.50 1015.94 1015.42 1014.91 1014.31 1013.58 1012.83 1012.23 1011.34 1010.40 1009.22 1009.47 1008.85 1008.96 1009.05 1008.60
1020.08 1020.66 1020.78 1021.17 1021.34 1021.40 1021.29 1021.04 1020.84 1020.69 1020.79 1020.94 1020.79 1020.98 1021.48 1021.96 1022.17 1022.17 1022.21 1022.05 1021.88 1021.65 1021.17 1020.85 1020.29 1019.53 1018.67 1018.04 1017.45 1016.86 1016.20 1015.79 1015.35 1014.93 1014.51 1013.82 1013.29 1012.61 1011.88 1011.38 1010.37 1010.23 1010.22 1010.22
1020.62 1020.93 1021.20 1021.67 1021.77 1021.72 1021.54 1021.54 1021.49 1021.75 1021.90 1022.01 1022.18 1022.10 1022.46 1022.86 1022.96 1022.92 1022.91 1022.79 1022.77 1022.62 1022.21 1021.79 1021.07 1020.31 1019.59 1018.89 1018.26 1017.81 1017.26 1016.80 1016.40 1016.22 1015.89 1015.33 1014.75 1014.24 1013.92 1013.65 1012.96 1012.67 1012.95 1013.22
1021.22 1021.45 1021.83 1022.06 1022.27 1022.25 1022.00 1021.91 1022.44 1022.78 1022.94 1023.10 1023.15 1023.10 1023.37 1023.57 1023.65 1023.80 1023.69 1023.69 1023.69 1023.38 1022.95 1022.51 1021.82 1021.11 1020.37 1019.63 1019.09 1018.50 1018.12 1017.93 1017.65 1017.45 1017.24 1016.82 1016.39 1016.15 1015.84 1015.55 1015.19 1015.28 1015.02 1014.69
1021.77 1022.00 1022.40 1022.80 1023.00 1023.07 1022.99 1023.10 1023.33 1023.70 1024.18 1024.34 1024.14 1024.05 1024.16 1024.33 1024.49 1024.75 1024.65 1024.48 1024.39 1024.08 1023.80 1023.27 1022.63 1021.93 1021.11 1020.40 1019.96 1019.52 1019.03 1018.71 1018.50 1018.52 1018.39 1018.10 1017.91 1017.65 1017.53 1017.39 1017.20 1017.29 1017.24 1017.16
1022.53 1022.93 1023.29 1023.66 1024.00 1024.18 1024.31 1024.52 1024.63 1025.02 1025.30 1025.36 1025.32 1025.04 1025.06 1025.17 1025.31 1025.51 1025.54 1025.58 1025.43 1025.27 1024.85 1024.22 1023.34 1022.68 1021.92 1021.27 1020.86 1020.61 1020.31 1019.94 1019.64 1019.55 1019.39 1019.19 1019.04 1018.96 1019.03 1019.20 1019.22 1019.32 1019.28 1019.60
1023.65 1024.28 1024.52 1024.69 1025.10 1025.45 1025.65 1025.78 1025.94 1026.21 1026.33 1026.38 1026.47 1026.32 1026.08 1026.14 1026.27 1026.36 1026.56 1026.66 1026.56 1026.15 1025.66 1025.00 1024.11 1023.18 1022.57 1022.13 1021.75 1021.55 1021.36 1021.12 1020.85 1020.65 1020.55 1020.50 1020.60 1020.74 1020.81 1020.82 1020.82 1021.17 1021.42 1021.58
1025.46 1025.83 1025.90 1025.85 1026.21 1026.55 1026.86 1027.07 1027.17 1027.21 1027.35 1027.59 1027.60 1027.59 1027.48 1027.46 1027.72 1027.84 1027.74 1027.44 1027.11 1026.76 1026.26 1025.62 1024.80 1023.87 1023.21 1022.82 1022.55 1022.33 1022.19 1022.07 1021.80 1021.76 1021.76 1021.82 1022.05 1022.18 1022.31 1022.40 1022.63 1022.82 1023.18 1023.06
1026.79 1027.06 1027.17 1027.34 1027.53 1027.77 1028.10 1028.45 1028.61 1028.51 1028.52 1028.60 1028.65 1028.81 1028.84 1028.77 1028.83 1028.85 1028.48 1028.17 1028.01 1027.63 1027.12 1026.31 1025.42 1024.64 1024.05 1023.57 1023.21 1023.11 1023.01 1022.99 1022.94 1022.90 1022.93 1023.07 1023.21 1023.48 1023.80 1024.06 1024.24 1024.36 1024.60 1024.91
1027.92 1028.18 1028.42 1028.67 1028.87 1029.08 1029.44 1029.77 1029.77 1029.85 1029.82 1029.62 1029.70 1029.80 1029.75 1029.79 1029.65 1029.51 1029.24 1029.18 1028.97 1028.63 1027.85 1027.06 1026.18 1025.46 1024.94 1024.59 1024.19 1024.08 1024.00 1023.99 1024.10 1024.16 1024.17 1024.34 1024.54 1024.78 1024.96 1025.22 1025.37 1025.64 1026.04 1026.21
1029.05 1029.35 1029.61 1029.84 1030.11 1030.26 1030.36 1030.49 1030.58 1030.80 1030.68 1030.47 1030.54 1030.77 1030.73 1030.60 1030.32 1030.14 1029.90 1029.75 1029.50 1028.86 1028.26 1027.63 1027.04 1026.46 1026.02 1025.56 1025.25 1025.14 1025.10 1025.09 1025.18 1025.34 1025.60 1025.82 1025.91 1026.09 1026.21 1026.34 1026.57 1026.91 1027.14 1027.31
1029.71 1030.07 1030.37 1030.59 1030.81 1031.14 1030.97 1031.05 1031.14 1031.23 1031.21 1031.13 1031.01 1031.02 1031.05 1031.05 1030.83 1030.69 1030.53 1030.33 1029.83 1029.41 1028.93 1028.50 1028.03 1027.62 1027.23 1026.79 1026.66 1026.44 1026.29 1026.30 1026.43 1026.50 1026.65 1026.80 1027.00 1027.31 1027.56 1027.69 1027.92 1028.24 1028.70 1028.81
1030.13 1030.49 1030.82 1031.04 1031.16 1031.41 1031.29 1031.34 1031.42 1031.46 1031.51 1031.50 1031.45 1031.44 1031.41 1031.33 1031.14 1031.03 1030.87 1030.65 1030.37 1030.09 1029.76 1029.49 1029.03 1028.65 1028.28 1028.11 1028.02 1027.86 1027.80 1027.71 1027.59 1027.76 1027.89 1028.00 1028.23 1028.28 1028.50 1028.77 1028.99 1029.14 1029.40 1029.64
1030.37 1030.69 1030.93 1030.84 1031.02 1031.28 1031.56 1031.50 1031.54 1031.65 1031.66 1031.70 1031.79 1031.44 1031.43 1031.45 1031.44 1031.14 1031.06 1031.01 1030.94 1030.75 1030.51 1030.14 1029.85 1029.49 1029.40 1029.39 1029.24 1029.16 1029.03 1029.03 1029.00 1029.04 1029.19 1029.30 1029.37 1029.46 1029.71 1029.84 1029.93 1029.98 1030.14 1030.24
1030.20 1030.44 1030.61 1030.94 1030.98 1031.19 1031.23 1031.14 1031.36 1031.55 1031.73 1031.84 1031.73 1031.52 1031.51 1031.52 1031.78 1031.74 1031.60 1031.56 1031.58 1031.51 1031.40 1031.00 1030.62 1030.65 1030.61 1030.57 1030.48 1030.38 1030.23 1030.14 1030.10 1030.10 1030.25 1030.46 1030.60 1030.74 1030.84 1030.79 1030.69 1030.79 1030.98 1031.12
1030.04 1030.21 1030.18 1030.16 1030.32 1030.45 1030.67 1030.99 1031.40 1031.42 1031.80 1032.05 1032.20 1032.08 1031.97 1031.98 1032.02 1032.04 1032.06 1032.10 1032.11 1032.18 1032.30 1032.49 1031.92 1031.52 1031.46 1031.54 1031.49 1031.38 1031.10 1031.10 1031.01 1031.04 1031.12 1031.37 1031.50 1031.68 1031.71 1031.68 1031.50 1031.52 1031.71 1032.01
1029.51 1029.69 1030.03 1030.17 1030.25 1030.50 1030.73 1031.16 1031.58 1031.90 1031.88 1032.01 1032.35 1032.34 1032.29 1032.34 1032.40 1032.46 1032.52 1032.59 1032.64 1032.73 1032.85 1032.93 1032.64 1032.18 1031.96 1031.83 1031.70 1031.83 1031.82 1031.72 1031.59 1031.63 1031.86 1032.03 1032.09 1032.10 1031.99 1032.05 1032.15 1032.15 1032.12 1032.08
Wind_Speed
15 9 5 6 13 12 9 10 3 9 5 8 10 14 14 14 13 15 13 12 14 13 11 12 13 12 13 13 14 13 13 13 14 16 15 15 14 15 8 9 12 14 13 11
7 4 6 11 11 15 11 14 13 17 10 12 13 13 15 12 10 12 14 13 14 15 15 14 14 14 13 14 16 13 13 13 15 14 15 15 16 15 9 10 12 13 14 13
5 13 7 9 16 18 12 21 7 5 7 10 14 16 14 12 13 12 12 12 13 13 12 12 12 12 13 13 15 14 14 14 14 15 16 16 15 14 9 11 11 12 12 15
5 8 4 5 16 8 20 19 18 15 10 10 14 13 12 12 12 12 13 13 12 11 11 13 12 13 13 14 14 16 16 16 16 17 17 17 15 18 11 10 12 13 12 12
2 3 3 8 15 10 7 10 13 12 8 6 8 10 13 14 12 12 11 11 10 9 9 10 12 15 15 15 15 15 17 18 18 17 18 17 15 18 11 10 10 10 11 12
3 3 5 4 20 15 7 8 11 11 10 5 8 3 3 9 10 10 10 10 10 10 10 12 15 15 14 15 16 17 17 17 17 16 16 15 13 17 10 6 9 8 10 9
4 2 2 13 19 13 4 4 7 7 7 10 6 5 5 7 10 11 10 12 12 11 11 12 13 13 12 14 16 14 14 14 15 16 16 13 11 13 7 10 12 10 13 11
4 4 4 20 8 7 3 9 10 7 5 8 9 8 7 8 9 10 11 12 12 9 8 9 12 12 13 14 14 13 13 13 15 16 15 13 11 13 11 7 13 10 11 11
4 2 4 5 5 7 7 6 9 11 11 7 8 7 7 7 9 10 9 8 7 8 9 10 12 12 13 13 13 12 13 14 15 15 17 16 13 13 10 9 8 8 11 7
4 4 6 6 5 8 8 10 8 7 10 8 9 8 9 8 9 9 8 9 8 9 12 12 12 13 12 12 12 11 11 13 13 14 16 18 11 11 10 11 9 8 8 9
3 5 5 5 5 6 5 7 9 9 10 9 8 10 8 8 9 8 8 8 8 9 10 12 13 13 12 13 12 10 10 11 11 10 13 12 16 15 14 15 12 9 7 10
2 1 2 2 3 4 4 6 7 9 10 12 9 10 10 8 8 8 8 9 10 11 10 11 11 12 13 13 11 10 9 8 9 9 9 9 9 12 31 27 32 31 27 17
2 3 5 4 3 4 1 4 7 9 9 8 10 9 10 8 8 10 9 10 10 10 10 10 10 10 11 11 10 10 10 9 7 8 8 9 9 9 10 16 32 31 29 28
4 3 3 5 4 7 8 6 10 10 9 8 8 9 8 8 9 10 10 9 8 10 10 10 10 10 11 10 9 10 9 12 7 7 7 8 9 8 8 9 11 11 24 24
5 5 5 5 6 8 9 8 10 10 8 8 7 8 8 9 9 10 9 9 9 10 10 10 10 11 10 9 9 10 7 7 7 7 7 8 8 9 9 9 10 9 9 13
6 7 6 6 5 7 9 9 9 8 7 7 8 7 8 8 8 9 9 10 9 9 10 10 10 10 10 8 8 7 7 9 8 6 6 7 8 8 8 9 9 9 9 9
7 6 6 6 8 8 9 8 7 6 7 8 8 8 8 8 9 9 8 7 7 7 8 9 10 10 9 8 6 5 4 5 7 7 7 7 7 7 7 8 8 9 9 10
11 9 9 8 7 7 8 7 7 8 8 8 7 7 7 7 7 6 6 6 7 8 11 11 11 10 9 8 7 5 5 6 6 6 6 6 7 6 7 7 8 8 7 10
9 9 8 9 7 8 7 7 7 7 6 5 6 5 3 4 4 3 4 7 8 8 10 11 14 11 9 10 7 5 5 6 6 6 6 7 7 7 6 6 7 7 7 7
10 10 10 9 7 7 6 3 4 6 5 5 5 6 6 5 3 4 4 6 6 4 7 10 10 9 9 9 9 6 6 6 6 6 6 6 6 6 6 8 7 7 7 7
6 6 6 6 5 4 4 3 4 5 4 5 5 4 5 3 5 4 5 5 7 6 8 10 9 7 7 8 7 6 6 6 6 6 5 4 6 6 6 6 6 6 6 5
3 4 4 4 5 3 2 3 4 4 4 5 6 4 4 3 3 4 2 2 4 8 6 7 7 10 8 10 7 7 7 6 5 5 5 5 5 5 5 5 5 5 4 4
4 4 3 4 4 3 2 3 3 3 4 3 4 4 3 1 1 3 3 5 5 6 6 6 7 9 10 7 6 6 7 7 6 5 5 5 4 4 4 4 4 4 4 4
4 4 3 3 3 2 2 2 2 1 1 1 2 2 3 2 4 3 2 2 5 6 4 5 7 9 8 5 6 6 5 5 5 5 5 6 4 4 4 4 4 3 4 5
4 3 3 4 4 3 3 3 2 2 1 1 2 2 3 2 4 2 2 2 4 4 4 6 7 7 5 4 4 4 4 4 4 4 4 4 3 4 3 3 3 3 4 3
4 3 3 4 4 2 2 3 1 2 4 2 1 1 2 2 2 3 3 2 2 3 3 3 3 3 3 3 3 4 4 4 4 4 4 3 3 3 3 3 3 3 3 2
1 2 2 2 2 3 2 4 4 2 2 3 2 2 1 1 1 2 3 3 2 1 2 3 3 3 3 3 3 3 3 2 3 3 3 3 3 2 3 3 3 3 2 3
Wind_Direction
293 291 331 298 290 317 43 353 167 105 94 91 69 74 72 52 40 40 44 33 28 25 19 11 5 357 351 346 340 335 328 322 320 311 310 302 293 279 238 203 196 191 170 175
306 316 41 10 42 45 29 6 85 98 70 59 64 62 60 68 65 45 36 34 26 19 15 10 358 348 343 341 340 334 331 328 322 317 314 309 307 266 222 204 200 185 174 156
285 327 89 24 2 48 50 22 328 76 85 90 60 51 41 45 43 36 32 27 24 19 11 3 347 343 344 342 338 341 335 330 330 328 320 315 308 271 215 207 190 177 170 151
289 325 55 11 17 24 55 32 16 51 60 71 83 68 46 42 37 30 22 16 12 11 1 355 344 349 345 346 348 349 342 338 337 335 326 314 310 293 212 189 186 167 160 165
350 325 118 41 359 348 359 45 23 30 40 100 125 83 47 34 33 27 16 12 4 9 360 348 351 351 347 349 353 353 350 343 337 338 326 318 318 315 206 180 179 163 154 150
337 22 35 2 330 325 266 54 28 20 32 40 213 30 32 27 28 25 22 17 6 2 5 5 357 353 356 358 356 356 351 342 337 335 329 319 322 315 230 154 116 103 83 61
344 27 101 351 326 309 70 3 30 34 33 50 69 67 83 42 37 32 22 13 7 7 8 2 354 357 360 360 0 347 346 344 344 348 339 326 343 346 356 102 96 92 89 72
355 31 344 1 12 49 346 23 18 29 57 85 96 94 86 67 52 40 27 16 11 3 357 359 358 358 4 1 349 346 353 354 357 357 358 347 358 18 15 31 99 85 86 71
18 52 48 33 29 34 22 43 23 22 6 91 89 79 77 69 53 46 35 16 1 4 4 11 9 3 7 355 347 349 1 5 6 3 13 4 5 43 18 28 55 69 89 80
179 75 81 39 29 27 24 24 44 31 21 43 85 78 66 58 51 45 30 19 1 5 11 8 4 7 6 355 350 357 5 14 10 11 22 21 17 28 45 25 39 48 68 74
115 129 125 76 46 13 22 29 33 65 47 29 76 69 63 48 45 40 34 16 12 7 7 1 355 5 1 1 359 6 18 16 18 19 23 25 34 32 51 44 50 54 50 71
258 257 263 115 63 47 28 40 47 46 55 39 51 72 65 52 38 40 31 21 17 8 6 357 353 354 7 3 5 10 23 30 25 23 21 25 31 46 45 51 55 57 58 69
27 82 77 82 41 354 45 45 55 67 54 60 51 62 60 54 44 38 35 26 16 3 356 348 346 353 353 358 2 15 27 24 33 32 25 32 34 34 43 39 50 53 58 63
32 92 69 39 38 24 9 99 85 77 60 48 59 69 64 51 43 36 30 23 16 12 3 352 353 358 350 357 8 21 31 35 37 35 32 33 33 32 45 47 51 42 43 56
91 72 84 84 53 38 29 77 75 61 48 40 48 65 61 58 50 39 28 21 16 19 5 356 356 353 350 358 11 26 29 33 37 37 35 37 38 42 41 41 48 48 42 39
131 112 98 89 74 56 60 57 63 53 46 41 35 54 67 60 59 58 42 30 24 7 354 349 358 349 350 5 13 16 21 29 40 44 42 41 38 42 44 45 49 46 43 34
97 71 52 103 86 73 65 62 59 51 48 49 43 40 49 58 53 44 32 19 13 5 358 357 346 353 359 6 16 14 16 30 40 50 48 51 53 54 52 52 54 51 48 41
85 76 64 77 98 89 74 63 60 59 57 51 52 46 45 51 49 35 16 9 13 10 7 349 348 354 2 14 18 25 33 31 40 51 53 58 58 56 59 63 61 62 54 48
74 78 72 75 74 83 78 64 52 54 44 48 55 51 30 41 59 22 360 34 18 10 349 344 348 357 9 15 30 30 35 35 41 47 53 54 58 60 61 62 65 63 59 55
88 86 85 79 66 79 81 44 56 54 20 48 57 48 47 36 56 40 18 47 13 330 331 346 351 1 9 18 26 29 37 41 51 53 52 55 56 57 66 67 71 68 66 65
100 93 87 86 77 62 69 79 62 51 22 32 73 93 86 34 44 29 38 35 352 343 357 358 9 8 15 16 25 33 35 42 48 50 57 54 62 61 63 65 65 66 68 66
120 112 118 110 104 83 53 88 88 68 46 37 40 72 80 40 44 36 27 42 358 2 11 13 15 21 24 31 27 28 33 43 46 48 54 59 63 67 62 70 76 75 70 61
124 133 129 128 137 163 85 65 67 104 85 62 65 79 91 133 112 71 30 359 23 14 24 21 14 29 31 34 32 37 41 41 45 48 51 51 48 58 61 60 64 79 77 76
135 135 162 182 143 127 114 262 190 150 125 68 94 91 111 68 357 20 29 49 33 27 9 19 23 30 40 34 34 35 37 43 51 55 59 58 53 54 58 66 73 62 70 71
151 176 151 159 185 229 206 225 189 192 211 30 59 65 73 64 137 270 45 28 65 43 21 12 34 35 32 34 39 37 37 38 41 58 56 64 57 64 67 63 74 84 87 86
173 189 197 202 207 193 216 153 159 168 135 119 49 15 17 0 19 16 18 50 50 47 33 360 11 30 39 52 55 45 40 50 60 63 71 65 71 66 74 80 83 91 103 107
219 181 164 95 84 114 100 129 120 118 148 144 161 266 183 26 36 80 68 40 28 20 6 7 18 28 50 47 44 45 54 54 64 88 83 94 83 96 92 113 122 118 105 103